This is the latest recevied weather packets stored in our database for station/object KD7ECD. If no packets are shown the sender has not sent any weather packets the latest 10 day(s).
| Time | Temp. | Humidity | Pressure | Rain* | Wind** | Luminosity | Snow |
|---|---|---|---|---|---|---|---|
| 1777853620 | 16.67° C | 66% | 1014.4 hPa | 0 mm | - | 334 W/m² | - |
| 1777853020 | 17.22° C | 64% | 1014.5 hPa | 0 mm | - | 195 W/m² | - |
| 1777852415 | 17.22° C | 65% | 1014.1 hPa | 0 mm | - | 391 W/m² | - |
| 1777851810 | 17.78° C | 64% | 1014.3 hPa | 0 mm | - | 325 W/m² | - |
| 1777851209 | 17.22° C | 64% | 1014.6 hPa | 0 mm | - | 414 W/m² | - |
| 1777850609 | 17.22° C | 64% | 1014.4 hPa | 0 mm | - | 452 W/m² | - |
| 1777850010 | 17.22° C | 64% | 1014.5 hPa | 0 mm | - | 388 W/m² | - |
| 1777849408 | 17.22° C | 64% | 1014.4 hPa | 0 mm | - | 418 W/m² | - |
| 1777848808 | 17.22° C | 68% | 1014.3 hPa | 0 mm | - | 256 W/m² | - |
| 1777848207 | 17.22° C | 65% | 1014.6 hPa | 0 mm | - | 311 W/m² | - |
| 1777847603 | 16.67° C | 68% | 1014.7 hPa | 0 mm | - | 260 W/m² | - |
| 1777847003 | 16.67° C | 68% | 1014.6 hPa | 0 mm | - | 246 W/m² | - |
| 1777846399 | 16.11° C | 69% | 1014.8 hPa | 0 mm | - | 246 W/m² | - |
| 1777845797 | 16.67° C | 68% | 1014.7 hPa | 0 mm | - | 233 W/m² | - |
| 1777845197 | 16.67° C | 68% | 1014.5 hPa | 0 mm | - | 293 W/m² | - |
| 1777844592 | 16.67° C | 68% | 1014.7 hPa | 0 mm | - | 304 W/m² | - |
| 1777843987 | 16.67° C | 66% | 1014.7 hPa | 0 mm | - | 360 W/m² | - |
| 1777843381 | 17.78° C | 64% | 1014.6 hPa | 0 mm | - | 585 W/m² | - |
| 1777842781 | 17.22° C | 66% | 1014.5 hPa | 0 mm | - | 531 W/m² | - |
| 1777842179 | 17.22° C | 64% | 1014.9 hPa | 0 mm | - | 588 W/m² | - |
| 1777841576 | 16.67° C | 67% | 1014.6 hPa | 0 mm | - | 385 W/m² | - |
| 1777840977 | 17.22° C | 66% | 1014.6 hPa | 0 mm | - | 560 W/m² | - |
| 1777840371 | 17.22° C | 66% | 1014.7 hPa | 0 mm | - | 920 W/m² | - |
| 1777839766 | 17.78° C | 65% | 1014.7 hPa | 0 mm | - | 937 W/m² | - |
| 1777839167 | 17.22° C | 67% | 1014.8 hPa | 0 mm | - | 843 W/m² | - |
* Rain latest hour (hover to see other rain measurements)
** Current wind speed in m/s (hover to see current wind gust speed)